Weather History for Holloman AFB, NM

Change the Weather History Date:

Friday, June 28, 2013

  Actual Average Record
Temperature  
Mean Temperature 89 °F -  
Max Temperature 101 °F 92 °F 105 °F (1998)
Min Temperature 78 °F 64 °F 46 °F (1997)
Cooling Degree Days 24    
Growing Degree Days 39 (Base 50)    
Moisture  
Dew Point 40 °F    
Average Humidity 19    
Maximum Humidity 26    
Minimum Humidity 11    
Precipitation  
Precipitation 0.00 in - - ()
Sea Level Pressure  
Sea Level Pressure 29.93 in    
Wind  
Wind Speed 11 mph (West)    
Max Wind Speed 18 mph    
Max Gust Speed 29 mph    
Visibility 10 miles    
Events      
Averages and records for this station are not official NWS values.
T = Trace of Precipitation, MM = Missing Value Source: NWS Daily Summary

Daily Weather History Graph

Daily Weather History Graph

Search for Another Location

Airport:

Trip Planner

Search our weather history database for the weather conditions in past years. The results will help you decide how hot, cold, wet, or windy it might be!

Date:

Astronomy

Jun. 28, 2013 Rise Set
Actual Time 5:58 AM MDT 8:16 PM MDT
Civil Twilight 5:30 AM MDT 8:45 PM MDT
Nautical Twilight 4:55 AM MDT 9:20 PM MDT
Astronomical Twilight 4:17 AM MDT 9:58 PM MDT
Moon No Moon Rise 11:48 AM MDT (6/28)
Length of Visible Light 15h 15m
Length of Day
14h 17m
Waning Gibbous, 65% of the Moon is Illuminated
Jun 28
Waning Gibbous
Jun 29
Last Quarter
Jul 8
New
Jul 15
First Quarter
Jul 22
Full

Hourly Weather History & Observations

Time (MDT) Temp. Dew Point Humidity Pressure Visibility Wind Dir Wind Speed Gust Speed Precip Events Conditions
12:58 AM 88.5 °F 40.5 °F 18% 29.81 in 10.0 mi South 18.4 mph - N/A   Clear
1:58 AM 87.4 °F 41.2 °F 20% 29.81 in 10.0 mi SSE 17.3 mph 28.8 mph N/A   Clear
2:58 AM 83.3 °F 41.2 °F 22% 29.81 in 10.0 mi SSE 11.5 mph - N/A   Clear
3:58 AM 81.7 °F 42.1 °F 25% 30.07 in 10.0 mi SSE 10.4 mph - N/A   Clear
4:58 AM 80.6 °F 41.9 °F 25% 29.83 in 10.0 mi SSE 8.1 mph - N/A   Clear
5:39 AM 78.8 °F 41.0 °F 26% 30.14 in 10.0 mi NW 15.0 mph - N/A   Scattered Clouds
5:40 AM 78.8 °F 39.2 °F 24% 30.15 in 10.0 mi SW 13.8 mph - N/A   Scattered Clouds
5:58 AM 80.2 °F 38.7 °F 23% 29.89 in 10.0 mi SW 1.2 mph - N/A   Scattered Clouds
6:58 AM 78.1 °F 38.3 °F 24% 29.92 in 10.0 mi NW 10.4 mph - N/A   Clear
7:58 AM 80.1 °F 39.6 °F 24% 29.95 in 10.0 mi WNW 5.8 mph - N/A   Clear
8:58 AM 86.0 °F 41.0 °F 20% 29.97 in 10.0 mi SW 4.6 mph - N/A   Clear
9:33 AM 86.0 °F 41.0 °F 20% 30.22 in 10.0 mi West 8.1 mph - N/A   Light Drizzle
9:42 AM 86.0 °F 41.0 °F 20% 30.23 in 10.0 mi Variable 2.3 mph - N/A   Clear
9:58 AM 87.6 °F 39.7 °F 19% 29.98 in 10.0 mi WNW 2.3 mph - 0.00 in   Clear
10:58 AM 90.7 °F 38.7 °F 16% 29.97 in 10.0 mi West 10.4 mph - N/A   Clear
11:58 AM 93.4 °F 38.8 °F 15% 29.93 in 10.0 mi WSW 11.5 mph - N/A   Clear
12:59 PM 97.0 °F 35.2 °F 12% 29.92 in 10.0 mi SSW 9.2 mph - N/A   Mostly Cloudy
1:58 PM 98.6 °F 35.6 °F 11% 29.88 in 10.0 mi SW 8.1 mph - N/A   Mostly Cloudy
2:58 PM 99.7 °F 37.0 °F 11% 29.85 in 10.0 mi NW 8.1 mph - N/A   Clear
3:58 PM 100.4 °F 36.1 °F 11% 29.84 in 10.0 mi Variable 5.8 mph - N/A   Partly Cloudy
4:58 PM 97.3 °F 40.1 °F 14% 29.84 in 10.0 mi NNE 15.0 mph - N/A   Clear
5:58 PM 98.6 °F 39.6 °F 13% 29.82 in 10.0 mi North 12.7 mph 18.4 mph N/A   Clear
6:58 PM 97.3 °F 39.4 °F 13% 29.82 in 10.0 mi NNW 6.9 mph - N/A   Clear
7:58 PM 93.6 °F 38.1 °F 14% 29.83 in 10.0 mi North 8.1 mph - N/A   Clear
8:58 PM 86.9 °F 39.2 °F 19% 29.85 in 10.0 mi NNE 8.1 mph - N/A   Clear
9:58 PM 85.5 °F 41.9 °F 22% 29.86 in 10.0 mi North 11.5 mph - N/A   Clear
10:58 PM 81.5 °F 40.8 °F 24% 29.87 in 10.0 mi North 6.9 mph - N/A   Clear
11:58 PM 82.8 °F 40.8 °F 23% 29.87 in 10.0 mi SSE 4.6 mph - N/A   Clear